Temp_Advection
nan nan nan nan nan nan nan nan nan nan nan nan nan nan nan nan nan nan nan nan nan nan nan nan nan nan nan nan nan nan nan nan nan nan nan nan nan nan nan nan nan nan nan nan nan
nan -0 -0 -0 -0 -0 0 0 0 0 0 0 0 1 1 -0 -2 -2 -0 0 -0 -0 0 -0 -0 0 -0 -0 -0 -0 -0 -2 -1 -0 -0 -0 -0 -0 -0 -0 -1 -1 -0 0 nan
nan 0 -0 0 0 -0 -0 -0 0 0 0 0 0 1 1 1 -1 -1 -0 0 -0 -0 -0 -0 -0 0 -0 -0 -0 -0 -1 -1 -0 -0 0 0 -0 -0 0 -0 -1 -0 -0 0 nan
nan 0 -0 -0 -0 0 0 -0 -0 -0 -0 0 0 1 1 -0 -0 0 -0 -0 0 0 -0 0 0 -0 0 -0 -1 -0 -1 -1 -1 0 0 -0 -0 0 -0 -1 -1 -0 0 0 nan
nan -0 -0 -0 -0 -0 -0 -0 -0 -0 -0 -0 0 1 2 0 -3 -1 2 0 -0 0 -0 -0 0 0 0 -0 -0 -0 -1 -1 -0 0 -0 0 0 -0 -1 -1 -0 -0 -0 0 nan
nan -0 -0 -0 -0 -0 -0 -0 -1 -1 -0 -0 0 1 2 -0 -3 0 0 0 0 0 0 -0 0 0 -0 -0 -1 -0 -0 -0 -0 -0 0 -0 -1 -1 -1 -0 -0 -1 -1 -0 nan
nan 0 0 0 -0 0 -0 -0 -0 -1 -1 -0 0 1 1 -2 0 0 0 1 0 0 -0 -0 0 -0 -0 -0 -0 -0 -0 -1 -0 -0 -0 -0 1 -1 -2 -0 -0 -0 -1 -0 nan
nan 0 0 1 0 -0 -0 -0 -1 -1 -0 -0 0 1 1 -0 -1 -1 -0 0 0 0 0 -0 -0 0 -0 -0 -0 -0 -0 -0 -1 -0 -0 0 -1 -1 0 0 -0 -0 -1 -1 nan
nan -0 -0 0 0 -0 -0 -0 -1 -1 -1 -0 0 1 0 -0 -0 -0 -0 -0 -0 -0 -0 -0 0 0 0 0 -0 0 -0 -1 -1 -0 0 1 -1 -1 -0 0 0 -1 -1 -1 nan
nan -0 -0 0 0 0 -0 -0 -0 -0 -0 -0 -0 -0 0 -0 -0 -0 0 -0 -0 0 -0 -0 -0 0 0 0 -0 -0 -0 -0 -1 -0 -0 -0 -1 -1 -0 0 -0 -0 -0 -1 nan
nan 1 0 -0 0 0 0 -0 0 -0 -0 0 -0 -0 -0 -0 -0 -0 0 -0 -1 0 0 -0 -0 -0 -0 -0 -0 0 -0 -1 -1 -0 0 0 -1 -1 -2 -1 -1 -1 -1 -1 nan
nan 0 1 0 -0 -0 0 -0 -0 0 -0 -0 0 0 0 1 -0 -0 0 -0 0 -0 -0 0 -0 -1 -0 0 -0 -0 0 -0 -1 -0 0 0 -1 -0 -0 -1 -1 -1 -1 -1 nan
nan -1 -0 0 -0 -0 -0 -0 -0 -0 -0 -0 0 0 0 0 -0 -0 0 -0 -0 -0 0 -0 -0 -0 0 0 0 0 -0 -0 -1 -1 -0 0 -1 -1 -1 -0 -0 -1 -1 -1 nan
nan -1 -1 -0 0 -0 -0 -0 -0 -0 0 -0 0 0 0 0 -0 -0 -0 -0 0 0 -0 -0 -0 -0 -0 -0 0 -0 -0 0 0 -0 -0 -0 -0 -1 -0 -0 -0 -0 -1 -1 nan
nan -1 -0 0 -0 -0 -0 -0 -0 0 0 -0 0 -0 -0 -0 -0 0 0 0 0 -0 -0 0 -0 -0 -0 -0 -0 -0 -0 -0 -0 0 0 0 0 -1 -0 -0 -0 -0 -1 -2 nan
nan -0 -0 -0 -0 -0 -0 -0 -0 -0 -0 -0 -0 -0 -0 -0 -0 -0 -0 0 0 0 0 -0 -0 0 -0 -0 -0 0 -0 -1 -0 0 0 -1 -0 -0 -1 -0 -0 -0 -1 -1 nan
nan -0 -0 -0 -0 -0 -0 -0 -0 0 0 -0 -0 -0 -0 -0 -0 -0 -0 0 0 -0 -0 -1 0 -0 -0 -0 -0 -0 -1 -0 -0 -0 -0 -0 -0 -1 -1 -1 -0 -1 -0 -1 nan
nan -1 -0 -0 -0 -0 0 -0 0 -0 0 -0 -0 -0 -0 -0 -0 -0 -0 -0 -0 -0 -0 0 -1 0 -0 0 0 0 -0 -0 -0 -0 -1 -1 -0 -0 -1 -1 -1 -1 -1 -1 nan
nan -1 -0 -0 -0 -0 -0 -0 -0 -0 -0 -0 -0 -0 -0 -0 0 -0 0 -0 -0 -0 -0 0 -1 -0 0 -0 -0 0 -0 0 0 -0 -0 -0 -1 -1 -1 -1 -0 -1 -1 -0 nan
nan -0 -0 -0 -0 -0 -0 -0 -0 -0 -0 -0 0 0 0 -0 -0 -0 -0 -0 -0 -0 -0 -0 -0 -0 -0 -0 -0 0 0 -0 -0 -0 -0 -0 -0 -1 -1 -1 -1 -1 -1 -1 nan
nan 0 0 0 -0 -0 -0 -0 -0 0 0 0 0 0 -0 0 0 -0 -0 -0 -0 0 -0 -0 0 -0 0 0 0 -0 -0 -0 -0 -0 -0 -0 -0 -0 -0 -0 -1 -1 -2 -2 nan
nan 0 0 0 -0 -0 -0 -0 -0 0 0 0 0 -0 -0 0 0 -0 -0 -0 0 -0 0 -0 0 -0 0 -0 -0 0 -0 0 0 0 -0 -0 -0 -0 -0 -0 -0 -0 -1 -3 nan
nan 0 0 0 0 -0 -0 -0 -0 0 -0 -0 -0 -0 0 0 0 -0 -0 -0 0 -0 -0 -0 0 -0 -1 -1 -1 -0 -0 -0 0 -0 -0 -0 -1 -0 0 -1 -1 -1 -1 -2 nan
nan 0 0 0 -0 -0 0 0 -0 -0 -0 0 0 0 0 0 0 -0 -0 -0 0 -0 -0 -0 -0 -0 0 0 0 -0 -0 -0 0 -0 -0 -1 -1 -1 -1 -1 -1 -1 -1 -1 nan
nan 0 0 -0 -0 0 0 -0 -0 -0 0 0 0 -0 0 0 -0 -0 -0 -0 -1 0 0 0 0 -0 -0 -0 -0 -0 0 -0 -1 -1 -0 -1 -1 1 -0 -0 -0 -0 -1 -1 nan
nan 0 -0 -0 -0 -0 0 -0 -0 -0 -0 -0 -0 -0 1 -0 -0 -0 -0 -0 0 -0 1 -0 -0 0 -0 -0 -0 -0 -0 -0 -0 -0 -0 -0 -0 -0 -0 -0 -0 -1 -1 -1 nan
nan nan nan nan nan nan nan nan nan nan nan nan nan nan nan nan nan nan nan nan nan nan nan nan nan nan nan nan nan nan nan nan nan nan nan nan nan nan nan nan nan nan nan nan nan
Wind_Speed
27 28 27 28 29 29 29 31 32 31 32 33 33 35 34 32 34 36 38 34 13 4 5 8 10 16 15 13 17 13 10 21 24 17 11 8 9 13 11 12 12 3 12 13 21
30 29 28 29 29 30 29 30 30 32 33 32 32 35 31 23 32 40 28 7 3 7 9 11 16 12 12 9 10 11 15 30 18 18 7 18 18 5 6 11 18 23 14 18 27
30 30 30 31 31 31 31 31 31 32 30 29 29 34 28 22 25 10 1 8 5 5 11 12 14 13 13 18 13 11 26 23 18 25 22 15 21 17 8 14 14 11 7 6 34
31 30 31 33 32 32 34 34 34 34 33 30 29 31 31 20 9 5 7 11 13 12 13 14 10 8 8 11 25 16 24 29 21 17 10 12 24 24 21 23 24 18 15 8 30
32 32 33 33 32 34 34 38 39 33 30 31 32 32 31 13 28 36 28 20 27 28 17 14 15 14 13 6 13 20 25 18 22 21 28 28 18 11 21 19 21 24 20 14 23
31 32 32 35 38 37 37 38 34 34 33 32 27 27 31 10 36 27 18 12 18 15 14 14 13 9 9 8 12 11 17 19 20 21 25 17 20 22 40 29 31 27 29 23 25
32 32 32 32 32 33 31 30 29 29 30 32 26 26 24 29 30 21 21 31 37 29 28 26 19 12 5 7 10 9 11 15 18 15 12 16 21 28 44 32 33 28 22 18 23
31 30 30 30 29 28 27 28 28 24 26 20 16 26 14 19 23 29 18 17 11 10 17 17 18 18 10 11 9 7 7 13 11 20 21 15 23 21 18 26 30 28 25 26 23
31 32 32 32 28 24 27 28 26 23 19 16 12 16 7 8 6 8 9 7 8 6 8 11 9 9 7 5 7 5 8 15 13 11 12 20 26 20 22 21 21 24 24 27 25
34 34 34 31 26 23 24 23 18 11 8 5 6 4 4 3 5 3 2 3 6 7 10 5 5 6 5 7 9 8 8 13 14 5 6 13 25 15 17 14 24 25 23 27 31
38 37 32 27 22 20 19 14 7 4 2 3 7 9 5 6 11 14 13 14 15 4 4 7 5 6 9 12 15 15 17 17 14 14 14 11 20 15 16 17 14 21 21 23 30
40 36 27 18 20 18 11 7 7 8 4 4 8 14 17 14 8 11 3 7 4 5 1 3 12 15 13 12 14 16 17 14 12 7 8 12 23 15 12 17 17 17 24 28 25
36 34 24 16 15 11 12 11 11 7 2 4 5 5 4 4 3 6 0 5 6 3 5 6 5 14 7 9 12 13 10 12 15 12 8 12 19 13 11 20 24 29 28 27 29
34 31 22 16 6 12 10 10 8 3 1 3 2 2 3 3 4 10 5 3 2 3 2 5 6 6 2 5 6 6 5 5 8 5 3 6 7 7 3 9 14 23 26 30 30
31 27 20 12 9 11 9 6 1 0 4 3 1 1 7 3 10 3 7 4 5 6 1 5 5 4 5 5 1 6 5 8 6 6 4 8 4 6 6 12 15 12 20 27 31
29 25 15 13 10 9 7 2 5 5 3 3 2 3 4 4 3 7 5 9 7 3 4 7 4 3 3 4 2 4 3 5 2 3 5 12 8 3 6 10 8 11 18 25 28
27 27 16 10 6 4 2 8 4 5 2 4 3 4 4 3 4 2 3 4 2 4 4 5 3 3 1 4 5 5 4 3 5 1 5 7 6 15 15 16 14 16 20 25 28
22 23 17 8 4 2 10 4 5 3 3 2 3 6 3 2 1 5 4 3 2 3 1 1 6 2 4 1 2 4 3 4 4 2 4 12 7 5 7 11 18 24 25 22 26
16 15 12 5 3 8 6 4 5 4 1 2 3 2 3 2 4 4 2 3 3 3 5 2 4 4 2 2 1 3 1 3 1 5 3 4 8 9 19 26 18 16 24 22 28
16 12 7 5 6 8 4 4 2 0 3 1 3 1 2 4 3 4 2 3 2 1 3 4 3 3 3 3 3 2 1 2 2 3 5 6 6 9 12 17 14 13 15 20 17
16 6 4 6 7 3 2 5 3 3 4 3 3 3 6 2 3 3 4 5 3 2 4 3 4 4 2 3 2 2 1 3 2 2 4 5 3 6 9 10 13 15 22 23 24
5 2 5 6 2 1 2 3 3 4 6 4 2 4 4 2 3 4 6 5 3 5 4 3 4 4 6 5 5 1 4 4 2 6 3 4 7 4 19 15 14 14 25 29 21
4 4 4 5 1 2 4 5 4 4 4 4 5 8 4 3 2 5 4 6 8 5 5 4 0 3 9 6 5 4 2 3 2 3 10 5 6 10 19 15 21 22 26 28 29
3 2 3 7 3 2 3 5 4 5 4 6 4 5 3 5 7 5 4 3 5 7 11 7 4 6 6 7 3 3 3 3 2 5 8 12 21 26 12 18 20 27 27 26 27
6 4 3 3 6 8 4 2 3 4 6 10 4 11 8 5 3 9 11 11 11 7 3 4 5 5 5 6 5 9 10 8 10 14 9 19 19 21 14 14 13 21 23 27 32
5 4 3 3 4 5 6 5 7 8 5 6 11 11 14 11 9 6 5 4 7 2 6 1 3 3 4 10 11 14 15 15 16 15 17 14 10 12 15 18 18 19 26 28 31
11 16 6 5 3 4 5 7 7 4 11 17 10 11 9 21 20 25 13 6 6 5 5 4 4 2 4 2 7 9 6 6 2 1 3 3 5 9 13 15 9 19 27 28 32
Wind_Direction
322 322 324 321 318 314 312 308 306 305 305 305 305 301 302 302 304 303 303 307 293 299 262 285 266 241 261 243 222 213 240 241 236 236 227 260 229 239 235 237 266 245 284 277 209
325 326 325 320 317 315 312 309 302 301 301 301 303 296 282 284 296 300 304 240 313 330 312 282 284 271 252 242 227 217 231 236 238 236 250 228 238 292 281 273 270 279 288 301 205
325 322 320 319 315 312 310 310 305 302 300 299 303 301 268 272 301 301 56 301 352 268 254 265 280 265 238 241 216 228 236 238 237 242 253 264 251 269 242 259 245 268 325 264 197
324 320 319 318 315 314 306 303 306 302 298 302 301 302 251 252 284 275 296 272 267 287 279 268 257 226 251 223 233 262 246 245 256 253 272 237 250 254 256 253 263 270 293 246 208
323 319 317 314 306 303 298 299 303 299 296 299 299 300 240 217 244 283 282 249 261 272 271 254 239 236 242 222 238 243 250 263 251 255 260 264 257 259 268 260 263 268 274 257 235
317 312 311 306 306 304 303 300 299 293 298 298 290 287 230 230 276 279 266 255 282 267 253 239 247 251 289 258 258 278 267 258 263 267 258 259 268 258 254 253 264 272 270 267 242
318 316 315 315 315 311 313 314 312 303 299 290 283 265 234 240 263 270 260 290 287 264 274 262 254 262 312 296 303 287 282 283 266 257 259 275 260 240 249 252 260 261 266 258 245
328 326 325 323 322 324 324 321 315 314 312 307 262 234 241 271 273 286 297 295 301 285 275 281 256 270 258 278 302 288 279 256 263 249 248 232 259 252 254 241 248 253 252 250 245
332 329 327 326 323 326 324 321 321 327 327 306 240 223 279 309 318 327 307 320 322 330 338 287 251 246 254 232 270 228 271 270 285 246 236 202 253 255 251 257 246 246 237 240 241
332 330 328 324 322 326 329 328 319 321 308 311 270 283 289 337 286 303 297 313 320 320 326 320 251 224 201 205 241 258 253 253 262 307 322 279 258 263 274 251 248 249 246 240 240
334 330 325 323 318 325 331 340 334 312 288 318 320 272 303 308 292 280 298 273 284 307 274 273 281 255 220 208 241 266 282 283 296 295 313 305 313 296 303 283 291 265 254 237 240
340 339 331 324 314 329 338 320 318 299 320 322 302 278 285 299 305 340 0 208 198 239 231 242 249 252 232 226 236 251 260 275 279 295 319 288 280 278 251 272 271 287 271 258 246
346 347 342 325 331 358 0 345 329 338 332 315 325 293 338 345 272 299 35 184 228 239 198 203 258 327 239 241 255 252 269 283 275 302 293 263 275 262 240 239 253 263 262 268 250
354 356 357 6 25 1 358 352 338 340 33 318 325 331 7 342 272 301 247 240 277 264 213 234 262 305 330 267 265 281 261 321 357 5 287 68 294 286 262 246 234 244 245 251 256
1 5 14 18 4 4 344 333 346 131 24 257 255 305 351 240 305 0 235 232 251 255 30 265 292 311 313 256 60 240 349 322 303 272 248 252 251 282 244 240 242 246 249 249 253
1 360 8 7 19 1 350 6 321 41 280 320 19 325 349 284 265 282 278 247 267 268 227 242 281 266 238 290 278 307 316 318 279 193 250 265 242 221 247 242 257 254 253 257 259
2 360 357 7 22 5 2 327 26 95 3 336 328 0 340 275 295 309 316 294 241 353 338 319 243 315 348 356 351 51 49 351 7 32 230 357 297 250 264 258 254 260 260 259 256
355 359 357 19 77 7 336 41 66 242 236 14 334 304 266 324 352 339 323 286 288 149 57 177 334 65 352 231 282 306 133 150 242 241 260 325 264 253 284 289 288 278 277 276 261
341 339 330 350 21 358 352 40 209 229 305 341 299 306 309 323 189 335 260 242 243 158 172 100 274 319 109 307 87 310 258 223 206 265 279 231 283 297 265 275 287 293 274 270 263
329 322 300 303 333 353 61 254 243 95 105 28 234 192 264 293 342 44 292 236 215 164 144 196 330 285 296 0 30 204 243 36 359 324 293 272 260 250 289 301 345 356 349 0 341
316 310 246 268 318 24 154 237 278 223 166 183 254 261 234 278 187 213 256 288 205 192 75 123 122 260 241 199 187 323 68 37 97 198 285 315 296 37 48 12 358 343 341 329 325
312 304 252 262 11 71 239 228 282 219 201 226 248 240 226 244 281 240 238 235 195 151 188 188 155 282 219 258 249 179 161 104 130 307 255 248 253 298 356 347 352 346 352 343 329
271 266 251 206 235 230 274 276 254 201 192 199 239 216 204 236 240 221 256 263 226 167 181 198 336 353 343 359 1 67 96 149 190 204 242 258 274 312 321 344 347 333 341 344 341
256 282 199 204 235 239 252 250 246 232 237 207 250 205 202 233 228 262 234 269 241 207 234 160 178 173 204 210 150 319 246 203 216 256 280 262 284 294 342 341 340 335 339 338 343
204 243 206 204 228 220 189 231 234 249 215 208 240 220 204 238 223 234 247 256 280 265 187 147 216 198 244 254 212 251 261 247 233 243 242 279 285 295 342 325 324 334 343 343 345
232 210 196 244 210 195 211 208 220 249 203 215 230 237 216 231 207 206 201 180 219 45 168 30 254 201 274 233 240 266 265 265 260 255 259 263 289 354 325 325 337 355 349 346 339
235 247 244 234 192 182 207 214 229 180 238 235 233 253 226 236 235 247 243 214 247 188 173 145 146 108 265 18 307 286 237 287 270 114 260 255 252 311 326 345 44 357 355 342 334
Height
1519 1516 1512 1509 1506 1502 1499 1496 1493 1490 1487 1484 1482 1479 1478 1476 1473 1467 1462 1460 1457 1456 1456 1456 1457 1459 1460 1458 1458 1457 1454 1438 1439 1443 1440 1438 1438 1438 1438 1437 1438 1437 1438 1436 1432
1515 1511 1508 1504 1501 1498 1494 1491 1488 1485 1482 1478 1475 1472 1470 1470 1467 1461 1456 1455 1455 1454 1454 1455 1454 1455 1456 1453 1454 1451 1439 1426 1434 1436 1438 1437 1437 1437 1437 1435 1432 1434 1435 1433 1431
1511 1507 1503 1500 1496 1492 1488 1485 1481 1478 1476 1474 1471 1468 1464 1466 1464 1453 1452 1453 1453 1454 1453 1453 1452 1452 1451 1452 1447 1439 1424 1423 1428 1431 1434 1433 1433 1436 1434 1432 1430 1430 1433 1433 1433
1505 1501 1497 1493 1489 1485 1481 1478 1475 1472 1469 1468 1466 1465 1457 1461 1465 1450 1451 1453 1451 1452 1452 1451 1449 1448 1445 1444 1441 1439 1427 1427 1429 1431 1431 1429 1431 1426 1428 1423 1429 1430 1431 1432 1434
1500 1495 1491 1486 1482 1478 1473 1470 1467 1464 1462 1461 1460 1457 1452 1451 1445 1450 1449 1447 1446 1448 1448 1448 1446 1444 1438 1435 1437 1432 1423 1425 1426 1427 1427 1427 1422 1426 1420 1422 1423 1426 1428 1429 1429
1494 1489 1484 1478 1474 1469 1465 1461 1458 1456 1455 1454 1453 1448 1443 1445 1442 1443 1442 1442 1441 1441 1442 1442 1442 1441 1438 1434 1433 1425 1424 1422 1422 1422 1423 1422 1420 1425 1403 1416 1416 1420 1422 1424 1423
1487 1482 1477 1472 1467 1462 1458 1454 1451 1449 1447 1445 1446 1441 1438 1435 1438 1438 1437 1437 1437 1439 1438 1439 1442 1442 1437 1431 1428 1425 1423 1418 1415 1417 1416 1419 1413 1400 1397 1412 1411 1413 1417 1418 1418
1482 1477 1471 1466 1461 1457 1453 1450 1446 1443 1440 1435 1435 1436 1435 1433 1435 1436 1436 1432 1432 1434 1435 1433 1438 1437 1436 1434 1428 1426 1420 1418 1409 1412 1410 1421 1397 1392 1401 1405 1403 1405 1409 1413 1414
1478 1472 1466 1461 1456 1453 1450 1445 1441 1439 1437 1434 1435 1435 1434 1433 1432 1433 1431 1432 1432 1433 1433 1433 1433 1433 1433 1432 1430 1424 1421 1414 1407 1401 1403 1405 1391 1392 1398 1399 1397 1398 1402 1406 1409
1474 1467 1461 1456 1452 1449 1447 1441 1438 1437 1435 1435 1435 1439 1435 1434 1432 1432 1432 1433 1434 1433 1433 1433 1434 1430 1430 1431 1429 1420 1420 1411 1407 1404 1401 1400 1386 1392 1394 1394 1393 1392 1395 1398 1400
1469 1462 1456 1452 1448 1446 1443 1441 1441 1439 1437 1438 1438 1435 1435 1434 1432 1432 1432 1432 1431 1431 1435 1437 1435 1428 1427 1427 1425 1426 1421 1417 1414 1410 1409 1410 1404 1396 1397 1394 1391 1388 1389 1391 1393
1464 1456 1451 1448 1445 1444 1442 1441 1441 1443 1438 1437 1435 1434 1434 1434 1432 1428 1427 1431 1429 1430 1429 1432 1429 1421 1419 1422 1424 1422 1419 1418 1413 1404 1407 1407 1390 1394 1397 1393 1387 1385 1384 1385 1387
1462 1454 1448 1445 1443 1442 1441 1442 1440 1439 1440 1438 1436 1434 1434 1433 1432 1428 1428 1428 1429 1427 1427 1429 1421 1416 1415 1418 1418 1417 1417 1415 1410 1403 1401 1399 1386 1386 1382 1382 1380 1379 1379 1380 1381
1461 1453 1447 1443 1444 1443 1442 1441 1439 1440 1442 1439 1436 1435 1434 1433 1433 1428 1426 1428 1427 1427 1423 1425 1418 1417 1417 1415 1413 1415 1407 1406 1405 1410 1412 1407 1401 1379 1376 1372 1372 1371 1371 1371 1372
1460 1455 1450 1445 1445 1445 1445 1441 1440 1442 1461 1438 1437 1435 1434 1436 1433 1428 1428 1428 1428 1424 1425 1422 1417 1415 1416 1412 1411 1415 1409 1409 1407 1409 1410 1400 1408 1386 1374 1370 1365 1365 1364 1364 1367
1460 1455 1452 1449 1446 1444 1443 1442 1443 1452 1462 1439 1436 1436 1435 1433 1432 1429 1428 1427 1424 1424 1422 1420 1415 1414 1412 1409 1410 1410 1411 1410 1407 1408 1420 1398 1400 1391 1374 1367 1363 1360 1359 1360 1362
1460 1455 1451 1449 1448 1446 1445 1444 1452 1454 1443 1441 1441 1438 1438 1434 1431 1427 1427 1428 1431 1436 1434 1421 1415 1413 1412 1413 1412 1413 1420 1456 1448 1433 1445 1402 1394 1377 1362 1357 1357 1355 1354 1354 1356
1461 1456 1453 1449 1447 1447 1446 1447 1462 1448 1444 1444 1444 1440 1438 1432 1431 1430 1429 1430 1424 1426 1446 1446 1436 1415 1415 1416 1416 1418 1421 1451 1449 1454 1428 1400 1400 1379 1363 1357 1357 1354 1352 1350 1351
1460 1458 1454 1451 1448 1448 1448 1464 1455 1447 1444 1446 1444 1443 1438 1432 1436 1434 1431 1431 1426 1424 1438 1455 1431 1419 1416 1415 1418 1423 1427 1420 1431 1420 1426 1409 1389 1372 1364 1352 1354 1351 1346 1346 1347
1458 1456 1453 1451 1449 1449 1452 1453 1446 1445 1446 1447 1447 1442 1448 1438 1439 1446 1437 1425 1424 1424 1424 1432 1448 1422 1417 1417 1418 1419 1420 1437 1438 1452 1420 1398 1395 1379 1365 1356 1358 1357 1352 1346 1344
1455 1453 1452 1452 1451 1451 1461 1457 1446 1444 1444 1448 1447 1444 1442 1443 1443 1444 1437 1426 1422 1424 1425 1432 1440 1432 1425 1421 1426 1427 1425 1431 1435 1438 1416 1404 1383 1375 1378 1374 1370 1365 1359 1353 1349
1454 1455 1451 1452 1455 1455 1453 1450 1444 1442 1444 1444 1445 1443 1441 1438 1443 1441 1434 1426 1421 1422 1426 1427 1442 1441 1431 1422 1422 1417 1435 1438 1430 1451 1440 1421 1399 1375 1373 1374 1372 1367 1362 1355 1351
1453 1451 1450 1452 1455 1454 1451 1448 1444 1441 1441 1443 1440 1438 1437 1438 1445 1436 1428 1421 1421 1423 1428 1428 1444 1459 1434 1430 1422 1428 1422 1433 1432 1429 1426 1418 1393 1373 1382 1381 1377 1369 1363 1357 1352
1452 1450 1450 1450 1449 1449 1449 1446 1443 1437 1437 1437 1436 1434 1436 1436 1433 1432 1425 1419 1417 1419 1420 1422 1432 1440 1446 1447 1448 1444 1441 1426 1430 1429 1418 1408 1393 1373 1385 1381 1374 1366 1361 1356 1350
1449 1445 1443 1449 1445 1445 1446 1444 1439 1436 1434 1434 1432 1429 1430 1432 1431 1425 1422 1421 1418 1418 1417 1424 1429 1433 1429 1427 1432 1427 1427 1427 1426 1415 1418 1394 1390 1380 1389 1384 1377 1371 1364 1355 1347
1444 1443 1442 1439 1440 1440 1441 1436 1434 1430 1430 1428 1427 1419 1424 1425 1420 1421 1419 1421 1419 1417 1418 1425 1425 1423 1423 1421 1419 1416 1410 1407 1404 1402 1399 1394 1388 1387 1385 1379 1373 1369 1362 1354 1349
1438 1438 1439 1434 1433 1434 1433 1428 1425 1425 1420 1417 1418 1418 1417 1410 1413 1411 1413 1414 1416 1418 1421 1425 1425 1433 1429 1418 1415 1416 1403 1397 1393 1395 1396 1396 1392 1387 1380 1375 1373 1368 1363 1357 1351